Location: Seasalter
(51.3333°N, 1.0167°E)
Time: 15:27:34
(UTC+00:00)

ATLAS 3B R/B - Pass Details

Date: 26 September 2023
Orbit: 954 x 1241 km, 63.8° (Epoch: 01 December)

Event Time Altitude Azimuth Distance (km) Brightness Sun altitude
Rises 00:00:47 0° 288° (WNW) 3,983 5.8 -39.6°
Reaches altitude 10° 00:03:48 10° 299° (WNW) 3,067 5.3 -39.6°
Maximum altitude 00:10:18 32° 0° (N) 1,949 4.4 -39.5°
Drops below altitude 10° 00:17:05 10° 61° (ENE) 3,199 5.5 -39.3°
Sets 00:20:18 0° 72° (ENE) 4,179 6.1 -39.3°
